This demonstration page uses our WeatherBlox Daily Observations layout. Learn more.

Left ArrowRight Arrow

39.08367, -84.50855

Hourly Observations for June 22, 2021

Temp ( °F °C ) Dew Point ( °F °C ) Humidity (%) Winds ( mph kmh ) Pressure ( in mb ) Visibility ( mi km ) Precip ( " mm )
12:53 am 00:53 Cloudy 64 17.8 63 17.2 96 96 N N/A 29.86 1011 10 16 0.00 0.00
1:24 am 01:24 Cloudy 65 18.3 63 17.2 93 93 N N/A 29.86 1011 10 16 N/A
1:53 am 01:53 Cloudy 65 18.3 62 16.7 90 90 N N/A 29.86 1011 10 16 0.03 0.76
2:26 am 02:26 Mostly Cloudy 65 18.3 60 15.6 84 84 NW 7 11 29.86 1011 10 16 N/A
2:53 am 02:53 Mostly Clear 65 18.3 59 15 81 81 NW 8 13 29.85 1011 10 16 N/A
3:53 am 03:53 Partly Cloudy 64 17.8 59 15 84 84 N 13 20 29.85 1011 10 16 N/A
4:53 am 04:53 Mostly Clear 60 15.6 48 8.9 65 65 N 7 11 29.87 1012 10 16 N/A
5:53 am 05:53 Cloudy 61 16.1 48 8.9 63 63 N 10 17 29.90 1013 10 16 N/A
6:53 am 06:53 Sunny 59 15 48 8.9 67 67 N 7 11 29.92 1013 10 16 N/A
7:53 am 07:53 Sunny 60 15.6 49 9.4 67 67 N 9 15 29.95 1014 10 16 N/A
8:53 am 08:53 Mostly Sunny 63 17.2 48 8.9 58 58 N 9 15 29.98 1015 10 16 N/A
9:53 am 09:53 Sunny 65 18.3 43 6.1 45 45 NNE 10 17 30.00 1016 10 16 N/A
10:53 am 10:53 Sunny 66 18.9 43 6.1 43 43 NW 14 22 30.02 1017 10 16 N/A
11:53 am 11:53 Mostly Sunny 67 19.4 44 6.7 44 44 N 20 31 30.03 1017 10 16 N/A
12:53 pm 12:53 Partly Cloudy 67 19.4 43 6.1 42 42 NW 9 15 30.04 1017 10 16 N/A
1:53 pm 13:53 Sunny 67 19.4 41 5 39 39 WNW 13 20 30.03 1017 10 16 N/A
2:53 pm 14:53 Mostly Sunny 70 21.1 44 6.7 39 39 NNE 8 13 30.02 1017 10 16 N/A
3:53 pm 15:53 Sunny 70 21.1 42 5.6 37 37 N N/A 30.01 1016 10 16 N/A
4:53 pm 16:53 Sunny 70 21.1 42 5.6 37 37 WNW 7 11 30.01 1016 10 16 N/A
5:53 pm 17:53 Sunny 71 21.7 40 4.4 32 32 N 9 15 30.01 1016 10 16 N/A
6:53 pm 18:53 Mostly Sunny 70 21.1 41 5 35 35 WNW 8 13 30.02 1017 10 16 N/A
7:53 pm 19:53 Sunny 70 21.1 40 4.4 34 34 VRB 5 7 30.03 1017 10 16 N/A
8:53 pm 20:53 Sunny 63 17.2 47 8.3 56 56 N N/A 30.05 1018 10 16 N/A
9:53 pm 21:53 Clear 58 14.4 48 8.9 70 70 N N/A 30.06 1018 10 16 N/A
10:53 pm 22:53 Clear 56 13.3 48 8.9 75 75 N N/A 30.09 1019 10 16 N/A
11:53 pm 23:53 Clear 54 12.2 49 9.4 83 83 N N/A 30.10 1019 10 16 N/A

Powered by AerisWeather